When you browse on this site, cookies collect data to enhance your experience and personalize the content and advertising you see.
Visit our Privacy Policy to learn more. By continuing to use the site, you agree to this use of cookies and data.

Meteo pe oră la Dzialoszyn

Astăzi, 28 Septembrie, Luni

Timp Temperatura Precipitaţii Vânt Presiune Umiditate
00:00 +7°C° 0 mm 2 m/s 730 mmHg 82%
01:00 +7°C° 0 mm 2 m/s 730 mmHg 85%
02:00 +7°C° 0 mm 2 m/s 730 mmHg 85%
03:00 +7°C° 0 mm 2 m/s 730 mmHg 86%
04:00 +8°C° 0 mm 1 m/s 730 mmHg 87%
05:00 +8°C° 0 mm 1 m/s 731 mmHg 86%
06:00 +8°C° 0 mm 1 m/s 731 mmHg 85%
07:00 +9°C° 0 mm 1 m/s 731 mmHg 84%
08:00 +11°C° 0 mm 1 m/s 731 mmHg 77%
09:00 +13°C° 0 mm 1 m/s 732 mmHg 70%
10:00 +14°C° 0 mm 1 m/s 732 mmHg 63%
11:00 +14°C° 0.1 mm 1 m/s 732 mmHg 66%
12:00 +14°C° 0.1 mm 2 m/s 732 mmHg 68%
13:00 +13°C° 0.1 mm 3 m/s 732 mmHg 71%
14:00 +13°C° 0.6 mm 2 m/s 732 mmHg 78%
15:00 +10°C° 0.6 mm 2 m/s 732 mmHg 86%
16:00 +10°C° 0.6 mm 1 m/s 732 mmHg 93%
17:00 +10°C° 0 mm 1 m/s 732 mmHg 94%
18:00 +10°C° 0 mm 1 m/s 732 mmHg 95%
19:00 +9°C° 0 mm 1 m/s 732 mmHg 96%
20:00 +9°C° 0 mm 1 m/s 732 mmHg 96%
21:00 +9°C° 0 mm 1 m/s 732 mmHg 96%
22:00 +8°C° 0 mm 0 m/s 733 mmHg 96%
23:00 +8°C° 0 mm 0 m/s 733 mmHg 96%

Mâine, 29 Septembrie, Marţi

Timp Temperatura Precipitaţii Vânt Presiune Umiditate
00:00 +8°C° 0 mm 0 m/s 733 mmHg 96%
01:00 +9°C° 0 mm 1 m/s 733 mmHg 96%
02:00 +9°C° 0 mm 1 m/s 733 mmHg 97%
03:00 +9°C° 0 mm 1 m/s 733 mmHg 97%
04:00 +9°C° 0 mm 1 m/s 733 mmHg 97%
05:00 +9°C° 0.1 mm 1 m/s 733 mmHg 97%
06:00 +8°C° 0.1 mm 2 m/s 733 mmHg 96%
07:00 +8°C° 0.1 mm 2 m/s 734 mmHg 96%
08:00 +8°C° 0.3 mm 2 m/s 734 mmHg 95%
09:00 +9°C° 0.3 mm 2 m/s 734 mmHg 95%
10:00 +9°C° 0.3 mm 2 m/s 734 mmHg 94%
11:00 +9°C° 0.3 mm 2 m/s 734 mmHg 94%
12:00 +10°C° 0.3 mm 2 m/s 734 mmHg 94%
13:00 +10°C° 0.3 mm 2 m/s 734 mmHg 94%
14:00 +10°C° 0 mm 2 m/s 734 mmHg 93%
15:00 +10°C° 0 mm 2 m/s 734 mmHg 93%
16:00 +12°C° 0 mm 2 m/s 734 mmHg 93%
17:00 +11°C° 0 mm 1 m/s 734 mmHg 94%
18:00 +11°C° 0 mm 1 m/s 734 mmHg 94%
19:00 +10°C° 0 mm 1 m/s 734 mmHg 95%
20:00 +10°C° 0 mm 1 m/s 734 mmHg 95%
21:00 +10°C° 0 mm 1 m/s 735 mmHg 94%
22:00 +10°C° 0 mm 1 m/s 735 mmHg 93%
23:00 +10°C° 0 mm 1 m/s 735 mmHg 93%

Poimâine, 30 Septembrie, Miercuri

Timp Temperatura Precipitaţii Vânt Presiune Umiditate
00:00 +10°C° 0 mm 1 m/s 735 mmHg 92%
01:00 +10°C° 0 mm 1 m/s 735 mmHg 92%
02:00 +10°C° 0 mm 1 m/s 734 mmHg 92%
03:00 +10°C° 0 mm 1 m/s 734 mmHg 92%
04:00 +10°C° 0 mm 1 m/s 734 mmHg 92%
05:00 +10°C° 0 mm 1 m/s 734 mmHg 93%
06:00 +10°C° 0 mm 1 m/s 734 mmHg 93%
07:00 +10°C° 0 mm 1 m/s 734 mmHg 93%
08:00 +11°C° 0 mm 1 m/s 734 mmHg 92%
09:00 +11°C° 0 mm 1 m/s 734 mmHg 90%
10:00 +12°C° 0 mm 1 m/s 734 mmHg 89%
11:00 +13°C° 0 mm 1 m/s 734 mmHg 86%
12:00 +13°C° 0 mm 1 m/s 734 mmHg 83%
13:00 +14°C° 0 mm 1 m/s 734 mmHg 81%
14:00 +14°C° 0 mm 1 m/s 733 mmHg 80%
15:00 +15°C° 0 mm 1 m/s 733 mmHg 79%
16:00 +15°C° 0 mm 2 m/s 733 mmHg 78%
17:00 +14°C° 0 mm 1 m/s 733 mmHg 81%
18:00 +13°C° 0 mm 1 m/s 733 mmHg 85%
19:00 +12°C° 0 mm 1 m/s 733 mmHg 88%
20:00 +12°C° 0 mm 1 m/s 733 mmHg 89%
21:00 +11°C° 0 mm 1 m/s 732 mmHg 89%
22:00 +11°C° 0 mm 1 m/s 732 mmHg 90%
23:00 +11°C° 0 mm 1 m/s 732 mmHg 90%

1 Octombrie, Joi

Timp Temperatura Precipitaţii Vânt Presiune Umiditate
00:00 +11°C° 0 mm 1 m/s 732 mmHg 90%
01:00 +11°C° 0 mm 1 m/s 731 mmHg 91%
02:00 +11°C° 0 mm 1 m/s 731 mmHg 91%
03:00 +11°C° 0 mm 1 m/s 731 mmHg 91%
04:00 +11°C° 0 mm 1 m/s 730 mmHg 92%
05:00 +11°C° 0 mm 1 m/s 730 mmHg 92%
06:00 +11°C° 0 mm 1 m/s 730 mmHg 92%
07:00 +10°C° 0 mm 0 m/s 730 mmHg 91%
08:00 +13°C° 0 mm 1 m/s 729 mmHg 86%
09:00 +14°C° 0 mm 1 m/s 729 mmHg 80%
10:00 +15°C° 0 mm 1 m/s 729 mmHg 75%
11:00 +18°C° 0 mm 1 m/s 729 mmHg 72%
12:00 +19°C° 0 mm 1 m/s 728 mmHg 69%
13:00 +20°C° 0 mm 1 m/s 728 mmHg 66%
14:00 +20°C° 0 mm 1 m/s 728 mmHg 68%
15:00 +19°C° 0 mm 1 m/s 727 mmHg 70%
16:00 +19°C° 0 mm 1 m/s 727 mmHg 72%
17:00 +18°C° 0 mm 1 m/s 727 mmHg 77%
18:00 +16°C° 0 mm 1 m/s 727 mmHg 82%
19:00 +15°C° 0 mm 1 m/s 728 mmHg 87%
20:00 +14°C° 0 mm 1 m/s 728 mmHg 88%
21:00 +13°C° 0 mm 1 m/s 727 mmHg 89%
22:00 +13°C° 0 mm 1 m/s 727 mmHg 91%
23:00 +13°C° 0 mm 1 m/s 727 mmHg 91%

2 Octombrie, Vineri

Timp Temperatura Precipitaţii Vânt Presiune Umiditate
00:00 +12°C° 0 mm 1 m/s 727 mmHg 91%
01:00 +12°C° 0 mm 1 m/s 727 mmHg 92%
02:00 +12°C° 0 mm 1 m/s 727 mmHg 92%
03:00 +12°C° 0 mm 1 m/s 727 mmHg 92%
04:00 +12°C° 0 mm 1 m/s 727 mmHg 92%
05:00 +12°C° 0 mm 1 m/s 727 mmHg 92%
06:00 +12°C° 0 mm 1 m/s 727 mmHg 91%
07:00 +12°C° 0 mm 1 m/s 728 mmHg 91%
08:00 +14°C° 0 mm 1 m/s 728 mmHg 84%
09:00 +16°C° 0 mm 1 m/s 728 mmHg 77%
10:00 +17°C° 0 mm 2 m/s 728 mmHg 71%
11:00 +18°C° 0 mm 2 m/s 728 mmHg 68%
12:00 +18°C° 0 mm 3 m/s 728 mmHg 66%
13:00 +19°C° 0 mm 3 m/s 727 mmHg 63%
14:00 +18°C° 0 mm 3 m/s 727 mmHg 66%
15:00 +18°C° 0 mm 4 m/s 727 mmHg 69%
16:00 +17°C° 0 mm 4 m/s 727 mmHg 72%
17:00 +16°C° 0 mm 3 m/s 727 mmHg 77%
18:00 +14°C° 0 mm 3 m/s 727 mmHg 81%
19:00 +12°C° 0 mm 3 m/s 727 mmHg 86%
20:00 +12°C° 0 mm 3 m/s 727 mmHg 87%
21:00 +11°C° 0 mm 3 m/s 727 mmHg 89%
22:00 +12°C° 0 mm 2 m/s 727 mmHg 90%
23:00 +11°C° 0 mm 3 m/s 727 mmHg 90%

3 Octombrie, Sâmbătă

Timp Temperatura Precipitaţii Vânt Presiune Umiditate
00:00 +11°C° 0 mm 3 m/s 726 mmHg 89%
01:00 +11°C° 0 mm 3 m/s 726 mmHg 89%
02:00 +11°C° 0 mm 3 m/s 726 mmHg 89%
03:00 +12°C° 0 mm 2 m/s 725 mmHg 89%
04:00 +12°C° 0 mm 2 m/s 725 mmHg 90%
05:00 +12°C° 0 mm 2 m/s 725 mmHg 89%
06:00 +12°C° 0 mm 3 m/s 725 mmHg 89%
07:00 +12°C° 0 mm 3 m/s 725 mmHg 89%
08:00 +14°C° 0 mm 3 m/s 725 mmHg 84%
09:00 +15°C° 0 mm 4 m/s 725 mmHg 78%
10:00 +18°C° 0 mm 4 m/s 725 mmHg 72%
11:00 +18°C° 0 mm 4 m/s 725 mmHg 71%
12:00 +19°C° 0 mm 5 m/s 725 mmHg 69%
13:00 +20°C° 0 mm 5 m/s 725 mmHg 68%
14:00 +20°C° 0 mm 4 m/s 725 mmHg 69%
15:00 +20°C° 0 mm 4 m/s 724 mmHg 70%
16:00 +20°C° 0 mm 3 m/s 724 mmHg 72%
17:00 +18°C° 0 mm 3 m/s 724 mmHg 77%
18:00 +17°C° 0 mm 3 m/s 724 mmHg 83%
19:00 +16°C° 0 mm 3 m/s 724 mmHg 88%
20:00 +15°C° 0 mm 2 m/s 724 mmHg 89%
21:00 +15°C° 0 mm 2 m/s 724 mmHg 89%
22:00 +15°C° 0 mm 2 m/s 724 mmHg 90%
23:00 +15°C° 0 mm 2 m/s 724 mmHg 90%
Arată mai mult